EW4538 Weather Reports


Display with metric or nautical units.
time (UTC)temp
F
wind
direction
speed
MPH
gust
MPH
rain 1hr
in
rain 24hr
in
rain mn
in
humidity
%
barometer
mb
20220812020305 88 220 1.0 2.0 0.00 0.00 0.00 52 1015.1
20220812014305 89 219 2.0 6.0 0.00 0.00 0.00 50 1014.9
20220812013805 89 219 1.0 6.0 0.00 0.00 0.00 49 1014.8
20220812013305 90 215 1.0 8.0 0.00 0.00 0.00 48 1014.7
20220812012806 90 215 0.0 10.0 0.00 0.00 0.00 47 1014.7
20220812012305 90 206 5.0 14.0 0.00 0.00 0.00 46 1014.6
20220812011805 91 192 6.0 15.0 0.00 0.00 0.00 45 1014.7
20220812010806 94 192 5.0 8.0 0.00 0.00 0.00 37 1014.6
20220812010306 95 146 1.0 8.0 0.00 0.00 0.00 35 1014.4
20220812005806 95 133 4.0 7.0 0.00 0.00 0.00 35 1014.3
20220812005306 95 90 3.0 7.0 0.00 0.00 0.00 35 1014.3
20220812004805 95 133 2.0 7.0 0.00 0.00 0.00 35 1014.2
20220812004305 95 128 3.0 7.0 0.00 0.00 0.00 34 1014.2
20220812003805 95 116 3.0 8.0 0.00 0.00 0.00 34 1014.2
20220812003305 95 114 6.0 8.0 0.00 0.00 0.00 34 1014.1
20220812001806 96 145 2.0 12.0 0.00 0.00 0.00 33 1014.0
20220812001306 96 131 6.0 14.0 0.00 0.00 0.00 33 1014.1
20220812000806 97 126 6.0 14.0 0.00 0.00 0.00 33 1014.1
20220811235305 98 116 7.0 14.0 0.00 0.00 0.00 32 1014.0
20220811232305 97 26 4.0 6.0 0.00 0.00 0.00 34 1014.1
20220811231805 97 51 2.0 13.0 0.00 0.00 0.00 34 1014.1
20220811230805 97 29 6.0 14.0 0.00 0.00 0.00 33 1014.2
20220811230305 98 50 2.0 8.0 0.00 0.00 0.00 33 1014.1
20220811225806 98 98 5.0 8.0 0.00 0.00 0.00 33 1014.1
20220811225305 98 0 3.0 8.0 0.00 0.00 0.00 33 1014.0
20220811224305 97 337 1.0 6.0 0.00 0.00 0.00 37 1014.0
20220811223805 96 311 2.0 7.0 0.00 0.00 0.00 38 1014.0
20220811223305 96 309 2.0 7.0 0.00 0.00 0.00 38 1013.9
20220811222305 96 300 5.0 12.0 0.00 0.00 0.00 38 1014.1
20220811221805 96 324 3.0 7.0 0.00 0.00 0.00 38 1014.2
20220811214805 96 163 4.0 10.0 0.00 0.00 0.00 38 1014.4
20220811214305 96 164 4.0 8.0 0.00 0.00 0.00 38 1014.5
20220811213805 96 227 2.0 6.0 0.00 0.00 0.00 38 1014.6
20220811213305 96 182 2.0 6.0 0.00 0.00 0.00 38 1014.7
20220811205305 96 312 3.0 12.0 0.00 0.00 0.00 39 1015.4
20220811204805 95 59 6.0 10.0 0.00 0.00 0.00 39 1015.4
20220811204305 95 195 3.0 13.0 0.00 0.00 0.00 38 1015.4
20220811203305 95 166 10.0 14.0 0.00 0.00 0.00 39 1015.4
20220811201805 94 143 7.0 12.0 0.00 0.00 0.00 41 1015.6
20220811201305 94 177 6.0 12.0 0.00 0.00 0.00 41 1015.8
20220811200805 94 121 5.0 13.0 0.00 0.00 0.00 41 1015.9
20220811194805 94 148 4.0 12.0 0.00 0.00 0.00 43 1016.2
20220811194305 94 112 5.0 12.0 0.00 0.00 0.00 42 1016.3
20220811193805 94 144 10.0 12.0 0.00 0.00 0.00 41 1016.4
20220811192804 94 162 5.0 10.0 0.00 0.00 0.00 41 1016.4
20220811192305 94 165 6.0 13.0 0.00 0.00 0.00 42 1016.4
20220811184805 93 196 6.0 14.0 0.00 0.00 0.00 48 1017.1
20220811183805 93 178 6.0 14.0 0.00 0.00 0.00 48 1017.2
20220811183305 92 187 9.0 14.0 0.00 0.00 0.00 49 1017.4
20220811182805 89 163 5.0 13.0 0.00 0.00 0.00 56 1017.4
20220811182305 88 179 6.0 12.0 0.00 0.00 0.00 57 1017.7
20220811181805 88 198 6.0 12.0 0.00 0.00 0.00 56 1017.8
20220811181304 89 177 5.0 10.0 0.00 0.00 0.00 57 1017.8
20220811180804 90 182 1.0 12.0 0.00 0.00 0.00 56 1018.0
20220811175805 91 145 7.0 12.0 0.00 0.00 0.00 50 1018.2
20220811174305 92 221 5.0 8.0 0.00 0.00 0.00 46 1018.4
20220811173804 92 221 4.0 8.0 0.00 0.00 0.00 46 1018.5
20220811171305 93 318 5.0 12.0 0.00 0.00 0.00 46 1018.9
20220811170804 92 268 6.0 12.0 0.00 0.00 0.00 46 1019.0
20220811164805 91 311 4.0 7.0 0.00 0.00 0.00 48 1019.2
20220811163305 91 202 6.0 13.0 0.00 0.00 0.00 48 1019.2
20220811162804 91 287 5.0 13.0 0.00 0.00 0.00 48 1019.3
20220811162305 91 309 4.0 10.0 0.00 0.00 0.00 48 1019.3
20220811161805 92 205 4.0 8.0 0.00 0.00 0.00 47 1019.3
20220811160804 92 234 2.0 8.0 0.00 0.00 0.00 48 1019.2
20220811155805 91 299 3.0 10.0 0.00 0.00 0.00 49 1019.2
20220811155305 91 229 3.0 8.0 0.00 0.00 0.00 50 1019.2
20220811154804 90 331 3.0 8.0 0.00 0.00 0.00 51 1019.2
20220811154304 90 307 2.0 8.0 0.00 0.00 0.00 51 1019.2
20220811153805 90 204 3.0 8.0 0.00 0.00 0.00 51 1019.2
20220811152305 89 299 3.0 7.0 0.00 0.00 0.00 53 1019.1
20220811151804 89 259 3.0 7.0 0.00 0.00 0.00 53 1019.2
20220811151304 88 300 5.0 8.0 0.00 0.00 0.00 54 1019.1
20220811150805 88 215 2.0 8.0 0.00 0.00 0.00 55 1019.1
20220811145805 87 294 3.0 7.0 0.00 0.00 0.00 57 1019.1
20220811145305 87 201 4.0 7.0 0.00 0.00 0.00 57 1019.1
20220811144304 86 288 2.0 7.0 0.00 0.00 0.00 57 1019.3
20220811143305 86 138 3.0 7.0 0.00 0.00 0.00 58 1019.3
20220811142305 85 44 3.0 6.0 0.00 0.00 0.00 60 1019.3
20220811140804 84 287 1.0 5.0 0.00 0.00 0.00 61 1019.3
20220811140304 84 280 2.0 5.0 0.00 0.00 0.00 61 1019.2
20220811135306 84 355 1.0 2.0 0.00 0.00 0.00 63 1019.2
20220811134805 83 355 1.0 5.0 0.00 0.00 0.00 64 1019.3
20220811133804 82 24 3.0 6.0 0.00 0.00 0.00 65 1019.3
20220811133304 82 20 2.0 7.0 0.00 0.00 0.00 66 1019.2
20220811131805 81 86 6.0 8.0 0.00 0.00 0.00 68 1019.0
20220811130305 79 38 2.0 6.0 0.00 0.00 0.00 72 1018.8
20220811125804 78 40 1.0 2.0 0.00 0.00 0.00 73 1018.9
20220811125304 78 40 2.0 2.0 0.00 0.00 0.00 73 1018.9
20220811124804 78 40 1.0 2.0 0.00 0.00 0.00 74 1018.8
20220811122305 76 57 2.0 5.0 0.00 0.00 0.00 75 1018.8
20220811114804 76 152 1.0 2.0 0.00 0.00 0.00 75 1018.6
20220811113805 76 152 0.0 1.0 0.00 0.00 0.00 75 1018.6
20220811113305 76 152 1.0 2.0 0.00 0.00 0.00 75 1018.6
20220811112804 76 152 1.0 2.0 0.00 0.00 0.00 75 1018.6
20220811111804 76 152 0.0 1.0 0.00 0.00 0.00 75 1018.5
20220811110304 76 152 1.0 2.0 0.00 0.00 0.00 75 1018.4
20220811105805 76 152 0.0 2.0 0.00 0.00 0.00 75 1018.4
20220811104804 76 152 0.0 1.0 0.00 0.00 0.00 75 1018.4
20220811101804 77 152 0.0 1.0 0.00 0.00 0.00 75 1018.4
20220811101304 77 152 0.0 1.0 0.00 0.00 0.00 75 1018.4
20220811100804 77 152 0.0 0.0 0.00 0.00 0.00 74 1018.4
20220811100304 77 152 0.0 1.0 0.00 0.00 0.00 74 1018.5
20220811095305 77 152 0.0 1.0 0.00 0.00 0.00 74 1018.5
20220811094804 77 152 0.0 1.0 0.00 0.00 0.00 74 1018.6
20220811094304 77 152 0.0 2.0 0.00 0.00 0.00 74 1018.6
20220811093805 77 152 1.0 2.0 0.00 0.00 0.00 74 1018.6
20220811091804 77 152 0.0 2.0 0.00 0.00 0.00 74 1018.9
20220811090304 77 152 0.0 1.0 0.00 0.00 0.00 74 1018.9
20220811085804 77 152 1.0 1.0 0.00 0.00 0.00 74 1018.9
20220811084805 77 152 1.0 2.0 0.00 0.00 0.00 75 1018.9
20220811084304 77 152 1.0 2.0 0.00 0.00 0.00 75 1018.9
20220811082804 76 152 0.0 1.0 0.00 0.00 0.00 74 1018.8
20220811081804 76 152 0.0 1.0 0.00 0.00 0.00 74 1018.9
20220811075804 77 152 0.0 2.0 0.00 0.00 0.00 73 1018.8
20220811074304 77 152 0.0 1.0 0.00 0.00 0.00 73 1019.0
20220811073804 77 152 0.0 1.0 0.00 0.00 0.00 73 1019.0
20220811073304 77 152 0.0 1.0 0.00 0.00 0.00 73 1018.9
20220811071304 78 152 0.0 1.0 0.00 0.00 0.00 73 1019.0
20220811065804 78 152 0.0 1.0 0.00 0.00 0.00 72 1019.1
20220811064804 78 152 1.0 2.0 0.00 0.00 0.00 72 1019.2
20220811063803 78 152 1.0 2.0 0.00 0.00 0.00 72 1019.3
20220811063304 78 152 0.0 2.0 0.00 0.00 0.00 71 1019.3
20220811062305 78 152 0.0 2.0 0.00 0.00 0.00 71 1019.5
20220811061304 79 152 1.0 7.0 0.00 0.00 0.00 71 1019.7
20220811060304 79 149 6.0 8.0 0.00 0.00 0.00 70 1019.9
20220811055305 79 161 8.0 13.0 0.00 0.00 0.00 70 1019.9
20220811054804 79 145 5.0 12.0 0.00 0.00 0.00 69 1019.9
20220811054304 79 171 7.0 13.0 0.00 0.00 0.00 69 1019.9
20220811053804 79 161 7.0 13.0 0.00 0.00 0.00 68 1019.8
20220811053304 79 151 5.0 10.0 0.00 0.00 0.00 68 1019.9
20220811050829 80 150 2.0 10.0 0.00 0.00 0.00 66 1019.5
20220811044303 80 156 10.0 18.0 0.00 0.00 0.00 64 1019.5
20220811043804 81 173 10.0 18.0 0.00 0.00 0.00 63 1019.6
20220811042804 81 163 9.0 20.0 0.00 0.00 0.00 63 1019.5
20220811041304 82 143 10.0 18.0 0.00 0.00 0.00 62 1019.4
20220811035804 82 124 13.0 25.0 0.00 0.00 0.00 63 1019.3
20220811034805 83 140 14.0 24.0 0.00 0.00 0.00 60 1019.1
20220811033806 84 136 15.0 25.0 0.00 0.00 0.00 58 1019.2
20220811032304 85 119 14.0 24.0 0.00 0.00 0.00 54 1019.3
20220811025305 85 105 4.0 12.0 0.00 0.00 0.00 49 1019.1
20220811023306 85 104 9.0 12.0 0.00 0.00 0.00 48 1018.8
20220811022305 84 62 4.0 10.0 0.00 0.00 0.00 49 1018.8
20220811021306 84 53 2.0 5.0 0.00 0.00 0.00 49 1019.0